Satellite: NOAA-18
Catalog number: 28654
Epoch time:      06215.36411574
Element set:     581
Inclination:      098.7889 deg
RA of node:       157.6357 deg
Eccentricity:    0.0015402
Arg of perigee:   086.5950 deg
Mean anomaly:     273.6982 deg
Mean motion:   14.10978068 rev/day
Decay rate:      -1.98e-06 rev/day^2
Epoch rev:            6203
Checksum:              342

/EX
SB KEPS @ AMSAT  $ORB06216.M
Orbital Elements  06216.MISC

HR AMSAT ORBITAL ELEMENTS FOR MANNED AND MISCELLANEOUS SATELLITES
FROM WA5QGD FORT WORTH,TX August 4, 2006
Send SUBSCRIBE KEPS/UNSUBSCRIBE KEPS to majordomo@amsat.org only
BID: ORB06216.M
TO ALL RADIO AMATEURS BT

Satellite: HUBBLE
Catalog number: 20580
Epoch time:      06214.93507440
Element set:    0683
Inclination:      028.4675 deg
RA of node:       105.1423 deg
Eccentricity:    0.0003312
Arg of perigee:   316.2708 deg
Mean anomaly:     043.7616 deg
Mean motion:   15.00070372 rev/day
Decay rate:       3.53e-06 rev/day^2
Epoch rev:           69212
Checksum:              253

Satellite: UARS
Catalog number: 21701
Epoch time:      06215.58009180
Element set:     834
Inclination:      056.9770 deg
RA of node:       248.1051 deg
Eccentricity:    0.0097355
Arg of perigee:   302.2637 deg
Mean anomaly:     056.9012 deg
Mean motion:   15.44086983 rev/day
Decay rate:      3.720e-05 rev/day^2
Epoch rev:           81662
Checksum:              292

Satellite: PO-34
Catalog number: 25520
Epoch time:      06215.78950658
Element set:     528
Inclination:      028.4578 deg
RA of node:       072.6809 deg
Eccentricity:    0.0005644
Arg of perigee:   041.1047 deg
Mean anomaly:     318.9971 deg
Mean motion:   15.16757164 rev/day
Decay rate:       5.27e-06 rev/day^2
Epoch rev:           42928
Checksum:              330

Satellite: ISS
Catalog number: 25544
Epoch time:      06216.11273964
Element set:     439
Inclination:      051.6346 deg
RA of node:       300.5592 deg
Eccentricity:    0.0008128
Arg of perigee:   150.0495 deg
Mean anomaly:     291.8221 deg
Mean motion:   15.76287323 rev/day
Decay rate:     1.2461e-04 rev/day^2
Epoch rev:           44072
Checksum:              283

Satellite: OO-38
Catalog number: 26063
Epoch time:      06215.95900152
Element set:     683
Inclination:      100.1881 deg
RA of node:       155.6005 deg
Eccentricity:    0.0036930
Arg of perigee:   333.5051 deg
Mean anomaly:     026.4235 deg
Mean motion:   14.35772676 rev/day
Decay rate:       -1.2e-07 rev/day^2
Epoch rev:           34152
Checksum:              272

Satellite: NO-45
Catalog number: 26932
Epoch time:      06214.61107915
Element set:    0379
Inclination:      067.0537 deg
RA of node:       247.8153 deg
Eccentricity:    0.0008192
Arg of perigee:   245.1602 deg
Mean anomaly:     114.8646 deg
Mean motion:   14.29531107 rev/day
Decay rate:       -4.3e-07 rev/day^2
Epoch rev:           25260
Checksum:              288

Satellite: UWE-1
Catalog number: 28892
Epoch time:      06215.77969927
Element set:     517
Inclination:      098.1583 deg
RA of node:       113.2163 deg
Eccentricity:    0.0018174
Arg of perigee:   025.8610 deg
Mean anomaly:     334.3492 deg
Mean motion:   14.59379434 rev/day
Decay rate:       1.70e-06 rev/day^2
Epoch rev:            4091
Checksum:              316

Satellite: CO-58
Catalog number: 28895
Epoch time:      06214.74074640
Element set:    0502
Inclination:      098.1606 deg
RA of node:       112.2919 deg
Eccentricity:    0.0018657
Arg of perigee:   029.3548 deg
Mean anomaly:     330.8706 deg
Mean motion:   14.59431115 rev/day
Decay rate:       3.13e-06 rev/day^2
Epoch rev:           04064
Checksum:              302

Satellite: NCUBE2
Catalog number: 28897
Epoch time:      06214.64453066
Element set:    0101
Inclination:      098.1608 deg
RA of node:       112.1814 deg
Eccentricity:    0.0018619
Arg of perigee:   030.1753 deg
Mean anomaly:     330.0530 deg
Mean motion:   14.59585715 rev/day
Decay rate:       1.00e-06 rev/day^2
Epoch rev:           03290
Checksum:              267

/EX



----
Via the keps mailing list at AMSAT.ORG courtesy of AMSAT-NA.
To unsubscribe, send "unsubscribe keps" to Majordomo@amsat.org

--- ViaMAIL!/WC v1.60d
 * Origin: Chowdanet (401-724-4410) telnet://chowdanet.com  (1:323/120)